Location: Mentone
(34.5413°N, 85.5351°W)
Time: 14:17:02
(UTC-05:00)

Transit 2A Rocket - Visible Passes

Search period start: 04 May 2016 00:00
Search period end: 14 May 2016 00:00
Orbit: 586 x 919 km, 66.7° (Epoch: 04 May)

Date Brightness Start Highest point End Pass type
(mag) Time Alt. Az. Time Alt. Az. Time Alt. Az.
04 May 7.2 01:26:41 20° NE 01:26:41 20° NE 01:28:20 10° NNE visible
04 May 7.1 03:06:35 15° NW 03:06:35 15° NW 03:09:21 10° NNW visible
05 May 7.7 00:45:17 12° NE 00:45:17 12° NE 00:45:42 10° NE visible
05 May 6.9 02:25:11 22° NNW 02:25:11 22° NNW 02:28:02 10° N visible
06 May 6.9 01:43:45 25° N 01:43:45 25° N 01:46:13 10° NNE visible
07 May 7.2 01:02:17 21° NNE 01:02:17 21° NNE 01:04:06 10° NNE visible
07 May 7.5 02:42:10 10° NW 02:42:27 10° NW 02:43:23 10° NNW visible
08 May 7.5 00:20:46 15° NE 00:20:46 15° NE 00:21:41 10° NE visible
08 May 7.2 02:00:39 17° NW 02:00:39 17° NW 02:03:11 10° N visible
09 May 7.1 01:19:06 22° NNW 01:19:06 22° NNW 01:21:39 10° N visible
10 May 7.0 00:37:29 24° N 00:37:29 24° N 00:39:43 10° NNE visible
10 May 7.1 23:55:50 20° NNE 23:55:50 20° NNE 23:57:31 10° NNE visible
11 May 7.5 01:35:42 13° NW 01:35:42 13° NW 01:37:55 10° NNW visible
11 May 7.3 23:14:06 15° NE 23:14:06 15° NE 23:15:00 10° NE visible
12 May 7.2 00:53:59 20° NNW 00:53:59 20° NNW 00:56:55 10° N visible
13 May 6.8 00:12:09 27° NNW 00:12:09 27° NNW 00:15:13 10° N visible
13 May 6.5 23:30:15 31° N 23:30:15 31° N 23:33:12 10° NNE visible
